カタログに戻る

USA 413

運用中軍事VLEO
NORAD 61034·PAYLOAD·🇺🇸 United States

打ち上げ Sep 6, 2024 から Vandenberg Space Force Base

Loading…

次のパス (今後24時間)

TLE

古いSource: Mike McCants

元期: Aug 25, 2026, 23:27 UTC

1 61034U 24160P   26237.97773290 0.00000000  00000-0  00000-0 0    04
2 61034  70.0150 196.7042 0002000 271.6502  88.3497 14.96713220    07

AllMySatでUSA 413をリアルタイム追跡

Download on the App Store